| time (UTC) | temp C | wind direction | speed KPH | gust KPH | rain 1hr cm | rain 24hr cm | rain mn cm | humidity % | barometer mb |
| 20260502223030 | 25 | 150 | 0.0 | 0.0 | 0.00 | 0.00 | 0.00 | 35 | 1018.3 |
| 20260502221525 | 26 | 191 | 0.0 | 1.6 | 0.00 | 0.00 | 0.00 | 34 | 1018.6 |
| 20260502220026 | 26 | 352 | 0.0 | 0.0 | 0.00 | 0.00 | 0.00 | 34 | 1018.6 |
| 20260502214517 | 27 | 347 | 0.0 | 1.6 | 0.00 | 0.00 | 0.00 | 31 | 1018.7 |
| 20260502213013 | 28 | 120 | 0.0 | 1.6 | 0.00 | 0.00 | 0.00 | 32 | 1018.8 |
| 20260502211509 | 27 | 96 | 0.0 | 0.0 | 0.00 | 0.00 | 0.00 | 33 | 1019.1 |
| 20260502210005 | 26 | 53 | 0.0 | 1.6 | 0.00 | 0.00 | 0.00 | 32 | 1019.3 |
| 20260502204559 | 26 | 348 | 0.0 | 1.6 | 0.00 | 0.00 | 0.00 | 33 | 1019.6 |
| 20260502203056 | 27 | 8 | 0.0 | 3.2 | 0.00 | 0.00 | 0.00 | 34 | 1019.6 |
| 20260502201553 | 26 | 359 | 0.0 | 1.6 | 0.00 | 0.00 | 0.00 | 33 | 1019.9 |
| 20260502200049 | 27 | 5 | 0.0 | 1.6 | 0.00 | 0.00 | 0.00 | 31 | 1019.9 |
| 20260502194541 | 26 | 193 | 0.0 | 1.6 | 0.00 | 0.00 | 0.00 | 32 | 1020.1 |
| 20260502193037 | 26 | 356 | 0.0 | 3.2 | 0.00 | 0.00 | 0.00 | 32 | 1020.2 |
| 20260502191534 | 26 | 236 | 0.0 | 1.6 | 0.00 | 0.00 | 0.00 | 34 | 1020.3 |
| 20260502190035 | 25 | 346 | 0.0 | 4.8 | 0.00 | 0.00 | 0.00 | 34 | 1020.6 |
| 20260502184534 | 25 | 356 | 0.0 | 1.6 | 0.00 | 0.00 | 0.00 | 33 | 1020.8 |
| 20260502183028 | 25 | 356 | 0.0 | 3.2 | 0.00 | 0.00 | 0.00 | 34 | 1021.0 |
| 20260502181519 | 25 | 25 | 0.0 | 3.2 | 0.00 | 0.00 | 0.00 | 34 | 1021.1 |
| 20260502163053 | 21 | 354 | 0.0 | 4.8 | 0.00 | 0.00 | 0.00 | 47 | 1022.2 |
| 20260502161539 | 21 | 353 | 0.0 | 1.6 | 0.00 | 0.00 | 0.00 | 48 | 1022.1 |
| 20260502151522 | 18 | 349 | 0.0 | 1.6 | 0.00 | 0.00 | 0.00 | 54 | 1022.0 |
| 20260502123036 | 10 | 174 | 0.0 | 0.0 | 0.00 | 0.00 | 0.00 | 1 | 1020.9 |
| 20260502121540 | 10 | 173 | 0.0 | 0.0 | 0.00 | 0.00 | 0.00 | 1 | 1020.7 |
| 20260502114520 | 10 | 174 | 0.0 | 0.0 | 0.00 | 0.00 | 0.00 | 1 | 1020.1 |
| 20260502113016 | 10 | 173 | 0.0 | 0.0 | 0.00 | 0.00 | 0.00 | 1 | 1019.8 |
| 20260502111517 | 10 | 173 | 0.0 | 0.0 | 0.00 | 0.00 | 0.00 | 1 | 1019.5 |
| 20260502110009 | 10 | 173 | 0.0 | 0.0 | 0.00 | 0.00 | 0.00 | 1 | 1019.3 |
| 20260502104502 | 10 | 173 | 0.0 | 0.0 | 0.00 | 0.00 | 0.00 | 1 | 1019.3 |
| 20260502103058 | 10 | 174 | 0.0 | 0.0 | 0.00 | 0.00 | 0.00 | 1 | 1019.1 |
| 20260502101555 | 10 | 173 | 0.0 | 0.0 | 0.00 | 0.00 | 0.00 | 1 | 1019.4 |
| 20260502070109 | 11 | 173 | 0.0 | 0.0 | 0.00 | 0.00 | 0.00 | 11 | 1019.0 |
| 20260502064553 | 11 | 174 | 0.0 | 0.0 | 0.00 | 0.00 | 0.00 | 18 | 1018.9 |
| 20260502063055 | 11 | 173 | 0.0 | 0.0 | 0.00 | 0.00 | 0.00 | 19 | 1018.9 |
| 20260502061550 | 11 | 173 | 0.0 | 0.0 | 0.00 | 0.00 | 0.00 | 21 | 1019.0 |
| 20260502060047 | 11 | 173 | 0.0 | 0.0 | 0.00 | 0.00 | 0.00 | 30 | 1019.0 |
| 20260502054546 | 12 | 173 | 0.0 | 0.0 | 0.00 | 0.00 | 0.00 | 31 | 1019.0 |
| 20260502053046 | 12 | 173 | 0.0 | 0.0 | 0.00 | 0.00 | 0.00 | 39 | 1019.1 |
| 20260502051545 | 12 | 174 | 0.0 | 0.0 | 0.00 | 0.00 | 0.00 | 42 | 1018.8 |
| 20260502050038 | 12 | 173 | 0.0 | 0.0 | 0.00 | 0.00 | 0.00 | 47 | 1018.9 |
| 20260502044536 | 13 | 173 | 0.0 | 0.0 | 0.00 | 0.00 | 0.00 | 50 | 1018.8 |
| 20260502043027 | 13 | 173 | 0.0 | 0.0 | 0.00 | 0.00 | 0.00 | 52 | 1018.8 |
| 20260502041531 | 13 | 173 | 0.0 | 0.0 | 0.00 | 0.00 | 0.00 | 55 | 1018.7 |
| 20260502040019 | 13 | 173 | 0.0 | 0.0 | 0.00 | 0.00 | 0.00 | 56 | 1018.8 |
| 20260502034515 | 14 | 174 | 0.0 | 0.0 | 0.00 | 0.00 | 0.00 | 57 | 1018.5 |
| 20260502033011 | 14 | 173 | 0.0 | 0.0 | 0.00 | 0.00 | 0.00 | 58 | 1018.4 |
| 20260502031506 | 14 | 173 | 0.0 | 0.0 | 0.00 | 0.00 | 0.00 | 59 | 1018.4 |
| 20260502030000 | 15 | 173 | 0.0 | 0.0 | 0.00 | 0.00 | 0.00 | 59 | 1018.3 |
| 20260502024557 | 15 | 173 | 0.0 | 0.0 | 0.00 | 0.00 | 0.00 | 59 | 1017.9 |
| 20260502023055 | 15 | 173 | 0.0 | 0.0 | 0.00 | 0.00 | 0.00 | 59 | 1017.8 |
| 20260502021548 | 15 | 174 | 0.0 | 0.0 | 0.00 | 0.00 | 0.00 | 59 | 1017.7 |
| 20260502020048 | 15 | 173 | 0.0 | 0.0 | 0.00 | 0.00 | 0.00 | 59 | 1017.6 |
| 20260502014539 | 15 | 174 | 0.0 | 1.6 | 0.00 | 0.00 | 0.00 | 59 | 1017.2 |
| 20260502013035 | 15 | 188 | 0.0 | 0.0 | 0.00 | 0.00 | 0.00 | 59 | 1016.7 |
| 20260502011530 | 16 | 187 | 0.0 | 0.0 | 0.00 | 0.00 | 0.00 | 59 | 1016.6 |
| 20260502010029 | 16 | 190 | 0.0 | 0.0 | 0.00 | 0.00 | 0.00 | 59 | 1016.1 |
| 20260502004528 | 16 | 191 | 0.0 | 0.0 | 0.00 | 0.00 | 0.00 | 59 | 1015.9 |
| 20260502003025 | 16 | 191 | 0.0 | 1.6 | 0.00 | 0.00 | 0.00 | 59 | 1015.7 |
| 20260502001523 | 16 | 225 | 0.0 | 0.0 | 0.00 | 0.00 | 0.00 | 59 | 1015.5 |
| 20260502000018 | 16 | 85 | 0.0 | 0.0 | 0.00 | 0.00 | 0.00 | 59 | 1015.5 |
| 20260501234513 | 16 | 82 | 0.0 | 0.0 | 0.00 | 0.00 | 0.00 | 59 | 1015.5 |
| 20260501233009 | 16 | 60 | 0.0 | 0.0 | 0.00 | 0.00 | 0.00 | 59 | 1015.2 |
| 20260501231505 | 17 | 59 | 0.0 | 0.0 | 0.00 | 0.00 | 0.00 | 58 | 1015.0 |
| 20260501230002 | 17 | 56 | 0.0 | 1.6 | 0.00 | 0.00 | 0.00 | 57 | 1015.0 |
| 20260501224559 | 17 | 131 | 0.0 | 1.6 | 0.00 | 0.00 | 0.00 | 56 | 1014.9 |